Date String (YYYY-MM-DD hh:mm:ss) UTC,Instrument flags,Ambient pressure (hPa),Sample flow (lpm),Bypass flow (lpm),Sample temperature (°C),Ambient temperature (°C),ASC tube jacket temperature (°C),LED temperature (°C),Box temperature (°C),Sample RH (%),Span deviation,Mass concentration (μg/m³),Mass concentration (μg/m³),Mass concentration (μg/m³)
DateTimeUTC,F1_M11,P_M11,Q1_M11,Q2_M11,T1_M11,T2_M11,T3_M11,T4_M11,T5_M11,U1_M11,ZSPAN_M11,X0_M11,X2_M11,X1_M11
2022-12-21 10:00:00,,0821.4,4.96,0.00,21.3,19.4,00.0,30.3,22.8,11.0,0000.0,0002.10,0001.13,0000.73
2022-12-21 10:01:00,,0821.4,5.01,0.00,21.2,19.2,00.0,30.3,22.7,11.1,0000.0,0001.99,0001.08,0000.73
2022-12-21 10:02:00,,0821.4,5.03,0.00,21.2,19.1,00.0,30.3,22.7,10.9,0000.0,0001.93,0001.05,0000.73
2022-12-21 10:03:00,,0821.4,5.00,0.00,21.1,19.0,00.0,30.2,22.6,11.1,0000.0,0001.95,0001.02,0000.73
2022-12-21 10:04:00,,0821.4,4.97,0.00,21.1,19.0,00.0,30.2,22.6,11.0,0000.0,0001.97,0001.02,0000.72
2022-12-21 10:05:00,,0821.4,5.01,0.00,21.1,20.1,00.0,30.1,22.8,10.9,0000.0,0001.82,0000.99,0000.72
2022-12-21 10:06:00,,0821.5,5.00,0.00,21.2,21.5,00.0,30.1,23.1,10.8,0000.0,0001.77,0000.97,0000.72
2022-12-21 10:07:00,,0821.4,4.99,0.00,21.3,21.5,00.0,30.2,23.2,10.8,0000.0,0001.85,0000.99,0000.72
2022-12-21 10:08:00,,0821.4,4.98,0.00,21.3,21.0,00.0,30.2,23.1,10.7,0000.0,0001.92,0000.97,0000.72
2022-12-21 10:09:00,,0821.4,5.01,0.00,21.3,20.6,00.0,30.2,23.1,10.6,0000.0,0001.85,0000.98,0000.73
2022-12-21 10:10:00,,0821.4,5.02,0.00,21.3,20.3,00.0,30.2,23.0,10.7,0000.0,0001.90,0001.01,0000.74
2022-12-21 10:11:00,,0821.4,4.95,0.00,21.3,20.0,00.0,30.2,22.9,10.7,0000.0,0001.83,0000.97,0000.74
2022-12-21 10:12:00,,0821.4,5.01,0.00,21.3,19.8,00.0,30.2,22.9,10.7,0000.0,0001.80,0000.95,0000.73
2022-12-21 10:13:00,,0821.4,5.03,0.00,21.3,19.8,00.0,30.2,22.9,10.8,0000.0,0001.85,0000.99,0000.74
2022-12-21 10:14:00,,0821.4,5.00,0.00,21.3,19.8,00.0,30.2,22.9,10.8,0000.0,0001.97,0001.06,0000.76
2022-12-21 10:15:00,,0821.4,4.98,0.00,21.3,19.8,00.0,30.2,23.0,10.8,0000.0,0002.30,0001.19,0000.83
2022-12-21 10:16:00,,0821.5,5.02,0.00,21.3,19.9,00.0,30.2,23.0,11.2,0000.0,0004.14,0002.10,0001.63
2022-12-21 10:17:00,,0821.6,5.01,0.00,21.3,20.0,00.0,30.2,23.0,11.0,0000.0,0005.19,0002.55,0002.05
2022-12-21 10:18:00,,0821.7,4.95,0.00,21.3,20.0,00.0,30.2,23.0,10.9,0000.0,0005.54,0002.83,0002.30
2022-12-21 10:19:00,,0821.6,5.01,0.00,21.3,19.9,00.0,30.2,23.0,10.9,0000.0,0006.23,0003.06,0002.51
2022-12-21 10:20:00,,0821.6,5.02,0.00,21.3,19.8,00.0,30.2,23.0,10.8,0000.0,0007.48,0003.21,0002.73
2022-12-21 10:21:00,,0821.6,4.96,0.00,21.3,20.1,00.0,30.2,23.0,10.8,0000.0,0007.53,0003.24,0002.78
2022-12-21 10:22:00,,0821.6,5.02,0.00,21.4,21.3,00.0,30.1,23.3,10.8,0000.0,0007.61,0003.31,0002.88
2022-12-21 10:23:00,,0821.6,4.98,0.00,21.5,22.1,00.0,30.2,23.5,10.8,0000.0,0008.14,0003.53,0003.15
2022-12-21 10:24:00,,0821.5,5.03,0.00,21.6,21.8,00.0,30.2,23.6,10.7,0000.0,0008.51,0003.73,0003.32
2022-12-21 10:25:00,,0821.4,4.97,0.00,21.6,21.4,00.0,30.3,23.5,10.6,0000.0,0008.73,0003.85,0003.44
2022-12-21 10:26:00,,0821.3,5.03,0.00,21.6,21.0,00.0,30.3,23.4,10.5,0000.0,0008.71,0003.85,0003.44
2022-12-21 10:27:00,,0821.2,4.95,0.00,21.6,20.8,00.0,30.3,23.4,10.6,0000.0,0007.81,0003.40,0002.94
2022-12-21 10:28:00,,0821.1,5.03,0.00,21.6,20.6,00.0,30.3,23.3,10.6,0000.0,0007.29,0003.20,0002.55
2022-12-21 10:29:00,,0821.0,5.00,0.00,21.6,20.4,00.0,30.3,23.3,10.7,0000.0,0007.98,0003.04,0002.29
2022-12-21 10:30:00,,0821.1,4.96,0.00,21.6,20.3,00.0,30.3,23.2,10.7,0000.0,0008.57,0002.86,0002.09
2022-12-21 10:31:00,,0821.0,5.03,0.00,21.5,20.1,00.0,30.4,23.2,10.7,0000.0,0007.91,0002.65,0001.86
2022-12-21 10:32:00,,0821.1,5.02,0.00,21.5,20.0,00.0,30.3,23.1,10.8,0000.0,0008.00,0002.64,0001.79
2022-12-21 10:33:00,,0821.1,4.97,0.00,21.5,19.9,00.0,30.3,23.0,10.8,0000.0,0008.03,0002.56,0001.69
2022-12-21 10:34:00,,0821.1,5.00,0.00,21.5,20.3,00.0,30.3,23.1,10.8,0000.0,0007.70,0002.18,0001.39
2022-12-21 10:35:00,,0821.1,5.03,0.00,21.6,21.4,00.0,30.3,23.4,10.8,0000.0,0007.38,0001.85,0001.07
2022-12-21 10:36:00,,0821.1,4.97,0.00,21.7,22.0,00.0,30.3,23.7,10.8,0000.0,0006.91,0001.57,0000.85
2022-12-21 10:37:00,,0821.1,5.03,0.00,21.7,21.5,00.0,30.4,23.6,10.7,0000.0,0006.73,0001.49,0000.78
2022-12-21 10:38:00,,0821.1,4.95,0.00,21.7,21.1,00.0,30.4,23.5,10.7,0000.0,0006.59,0001.40,0000.74
2022-12-21 10:39:00,,0821.0,5.02,0.00,21.7,20.8,00.0,30.4,23.4,10.7,0000.0,0006.35,0001.30,0000.73
2022-12-21 10:40:00,,0820.9,5.01,0.00,21.6,20.5,00.0,30.4,23.3,10.7,0000.0,0004.58,0001.22,0000.73
2022-12-21 10:41:00,,0820.9,4.97,0.00,21.6,20.3,00.0,30.4,23.2,10.6,0000.0,0002.79,0001.17,0000.73
2022-12-21 10:42:00,,0821.0,4.99,0.00,21.6,20.2,00.0,30.4,23.2,10.6,0000.0,0002.73,0001.14,0000.74
2022-12-21 10:43:00,,0820.9,5.02,0.00,21.6,20.1,00.0,30.4,23.1,10.7,0000.0,0002.53,0001.07,0000.74
2022-12-21 10:44:00,,0821.0,5.01,0.00,21.5,20.0,00.0,30.4,23.1,10.8,0000.0,0002.30,0001.03,0000.73
2022-12-21 10:45:00,,0821.0,4.96,0.00,21.6,20.8,00.0,30.4,23.3,10.8,0000.0,0001.98,0001.01,0000.72
2022-12-21 10:46:00,,0821.0,5.03,0.00,21.7,21.9,00.0,30.4,23.5,10.7,0000.0,0001.82,0000.96,0000.71
2022-12-21 10:47:00,,0821.0,4.97,0.00,21.8,22.0,00.0,30.4,23.7,10.6,0000.0,0001.71,0000.95,0000.72
2022-12-21 10:48:00,,0820.9,5.04,0.00,21.8,21.5,00.0,30.5,23.6,10.7,0000.0,0001.65,0000.96,0000.73
2022-12-21 10:49:00,,0820.9,4.95,0.00,21.8,21.1,00.0,30.5,23.5,10.6,0000.0,0001.66,0000.98,0000.73
2022-12-21 10:50:00,,0820.9,5.03,0.00,21.8,20.9,00.0,30.5,23.4,10.5,0000.0,0001.75,0001.02,0000.73
2022-12-21 10:51:00,,0820.9,5.01,0.00,21.7,20.7,00.0,30.5,23.4,10.4,0000.0,0001.85,0001.06,0000.73
2022-12-21 10:52:00,,0820.9,4.95,0.00,21.7,20.5,00.0,30.5,23.3,10.5,0000.0,0001.84,0001.06,0000.73
2022-12-21 10:53:00,,0820.9,5.00,0.00,21.7,20.4,00.0,30.5,23.3,10.4,0000.0,0001.83,0001.06,0000.73
2022-12-21 10:54:00,,0820.9,5.01,0.00,21.6,20.3,00.0,30.5,23.2,10.6,0000.0,0001.79,0001.07,0000.74
2022-12-21 10:55:00,,0820.9,4.99,0.00,21.6,20.3,00.0,30.5,23.2,10.6,0000.0,0001.89,0001.10,0000.75
2022-12-21 10:56:00,,0820.9,4.98,0.00,21.6,20.3,00.0,30.5,23.3,10.6,0000.0,0002.09,0001.14,0000.76
2022-12-21 10:57:00,,0820.9,5.02,0.00,21.7,21.3,00.0,30.5,23.5,10.6,0000.0,0002.13,0001.15,0000.77
2022-12-21 10:58:00,,0821.0,4.97,0.00,21.8,22.3,00.0,30.5,23.8,10.6,0000.0,0002.10,0001.14,0000.77
2022-12-21 10:59:00,,0821.0,5.03,0.00,21.9,22.1,00.0,30.6,23.8,10.5,0000.0,0002.81,0001.16,0000.76
